00:00:03,6C912AE0,0,0,19679,0,0,143
00:00:11,6C912BE0,0,0,19679,0,0,142
00:00:19,6C912CE0,0,0,19679,0,0,142
00:00:35,6C912EE0,0,0,19679,0,0,141
00:00:43,6C912FE0,0,0,19679,0,0,141
00:00:51,6C9130E0,0,0,19679,0,0,141
00:01:07,6C9132E0,0,0,19679,0,0,141
00:01:15,6C9133E0,0,0,19679,0,0,141
00:01:23,6C9134E0,0,0,19679,0,0,141
00:01:39,6C9136E0,0,0,19679,0,0,142
00:01:47,6C9137E0,0,0,19679,0,0,142
00:01:55,6C9138E0,0,0,19679,0,0,142
00:02:11,6C913AE0,0,0,19679,0,0,143
00:02:19,6C913BE0,0,0,19679,0,0,143
00:02:27,6C913CE0,0,0,19679,0,0,143
00:02:43,6C913EE0,0,0,19679,0,0,143
00:02:51,6C913FE0,0,0,19679,0,0,143
00:02:59,6C9140E0,0,0,19679,0,0,144
00:03:15,6C9142E0,0,0,19679,0,0,144
00:03:23,6C9143E0,0,0,19679,0,0,144
00:03:31,6C9144E0,0,0,19679,0,0,144
00:03:47,6C9146E0,0,0,19679,0,0,145
00:03:55,6C9147E0,0,0,19679,0,0,145
00:04:03,6C9148E0,0,0,19679,0,0,145
00:04:19,6C914AE0,0,0,19679,0,0,145
00:04:27,6C914BE0,0,0,19679,0,0,145
00:04:35,6C914CE0,0,0,19679,0,0,145
00:04:51,6C914EE0,0,0,19679,0,0,145
00:04:59,6C914FE0,0,0,19679,0,0,145
00:05:07,6C9150E0,0,0,19679,0,0,146
00:05:23,6C9152E0,0,0,19679,0,0,146
00:05:31,6C9153E0,0,0,19679,0,0,146
00:05:39,6C9154E0,0,0,19679,0,0,146
00:05:55,6C9156E0,0,0,19679,0,0,145
00:06:03,6C9157E0,0,0,19679,0,0,145
00:06:11,6C9158E0,0,0,19679,0,0,144
00:06:27,6C915AE0,0,0,19679,0,0,144
00:06:35,6C915BE0,0,0,19679,0,0,143
00:06:43,6C915CE0,0,0,19679,0,0,143
00:06:59,6C915EE0,0,0,19679,0,0,143
00:07:07,6C915FE0,0,0,19679,0,0,142
00:07:15,6C9160E0,0,0,19679,0,0,142
00:07:31,6C9162E0,0,0,19679,0,0,141
00:07:39,6C9163E0,0,0,19679,0,0,141
00:07:47,6C9164E0,0,0,19679,0,0,141
00:08:03,6C9166E0,0,0,19679,0,0,141
00:08:11,6C9167E0,0,0,19679,0,0,141
00:08:19,6C9168E0,0,0,19679,0,0,141
00:08:35,6C916AE0,0,0,19679,0,0,141
00:08:43,6C916BE0,0,0,19679,0,0,142
00:08:51,6C916CE0,0,0,19679,0,0,142
00:09:07,6C916EE0,0,0,19679,0,0,142
00:09:15,6C916FE0,0,0,19679,0,0,143
00:09:23,6C9170E0,0,0,19679,0,0,143
00:09:39,6C9172E0,0,0,19679,0,0,143
00:09:47,6C9173E0,0,0,19679,0,0,143
00:09:55,6C9174E0,0,0,19679,0,0,143
00:10:11,6C9176E0,0,0,19679,0,0,144
00:10:19,6C9177E0,0,0,19679,0,0,144
00:10:27,6C9178E0,0,0,19679,0,0,144
00:10:43,6C917AE0,0,0,19679,0,0,145
00:10:51,6C917BE0,0,0,19679,0,0,145
00:10:59,6C917CE0,0,0,19679,0,0,145
00:11:15,6C917EE0,0,0,19679,0,0,145
00:11:23,6C917FE0,0,0,19679,0,0,145
00:11:31,6C9180E0,0,0,19679,0,0,145
00:11:47,6C9182E0,0,0,19679,0,0,145
00:11:55,6C9183E0,0,0,19679,0,0,146
00:12:03,6C9184E0,0,0,19679,0,0,146
00:12:19,6C9186E0,0,0,19679,0,0,146
00:12:27,6C9187E0,0,0,19679,0,0,146
00:12:35,6C9188E0,0,0,19679,0,0,146
00:12:51,6C918AE0,0,0,19679,0,0,146
00:12:59,6C918BE0,0,0,19679,0,0,145
00:13:07,6C918CE0,0,0,19679,0,0,145
00:13:23,6C918EE0,0,0,19679,0,0,144
00:13:31,6C918FE0,0,0,19679,0,0,144
00:13:39,6C9190E0,0,0,19679,0,0,143
00:13:55,6C9192E0,0,0,19679,0,0,142
00:14:03,6C9193E0,0,0,19679,0,0,142
00:14:11,6C9194E0,0,0,19679,0,0,142
00:14:27,6C9196E0,0,0,19679,0,0,141
00:14:35,6C9197E0,0,0,19679,0,0,141
00:14:43,6C9198E0,0,0,19679,0,0,141
00:14:59,6C919AE0,0,0,19679,0,0,141
00:15:07,6C919BE0,0,0,19679,0,0,141
00:15:15,6C919CE0,0,0,19679,0,0,141
00:15:31,6C919EE0,0,0,19679,0,0,141
00:15:39,6C919FE0,0,0,19679,0,0,142
00:15:47,6C91A0E0,0,0,19679,0,0,142
00:16:03,6C91A2E0,0,0,19679,0,0,142
00:16:11,6C91A3E0,0,0,19679,0,0,143
00:16:19,6C91A4E0,0,0,19679,0,0,143
00:16:35,6C91A6E0,0,0,19679,0,0,143
00:16:43,6C91A7E0,0,0,19679,0,0,143
00:16:51,6C91A8E0,0,0,19679,0,0,143
00:17:07,6C91AAE0,0,0,19679,0,0,144
00:17:15,6C91ABE0,0,0,19679,0,0,144
00:17:23,6C91ACE0,0,0,19679,0,0,144
00:17:39,6C91AEE0,0,0,19679,0,0,145
00:17:47,6C91AFE0,0,0,19679,0,0,145
00:17:55,6C91B0E0,0,0,19679,0,0,145
00:18:11,6C91B2E0,0,0,19679,0,0,145
00:18:19,6C91B3E0,0,0,19679,0,0,145
00:18:27,6C91B4E0,0,0,19679,0,0,145
00:18:43,6C91B6E0,0,0,19679,0,0,145
00:18:51,6C91B7E0,0,0,19679,0,0,145
00:18:59,6C91B8E0,0,0,19679,0,0,146
00:19:15,6C91BAE0,0,0,19679,0,0,146
00:19:23,6C91BBE0,0,0,19679,0,0,146
00:19:31,6C91BCE0,0,0,19679,0,0,146
00:19:47,6C91BEE0,0,0,19679,0,0,145
00:19:55,6C91BFE0,0,0,19679,0,0,145
00:20:03,6C91C0E0,0,0,19679,0,0,145
00:20:19,6C91C2E0,0,0,19679,0,0,144
00:20:27,6C91C3E0,0,0,19679,0,0,144
00:20:35,6C91C4E0,0,0,19679,0,0,143
00:20:51,6C91C6E0,0,0,19679,0,0,142
00:20:59,6C91C7E0,0,0,19679,0,0,142
00:21:07,6C91C8E0,0,0,19679,0,0,142
00:21:23,6C91CAE0,0,0,19679,0,0,141
00:21:31,6C91CBE0,0,0,19679,0,0,141
00:21:39,6C91CCE0,0,0,19679,0,0,141
00:21:55,6C91CEE0,0,0,19679,0,0,141
00:22:03,6C91CFE0,0,0,19679,0,0,141
00:22:11,6C91D0E0,0,0,19679,0,0,141
00:22:27,6C91D2E0,0,0,19679,0,0,141
00:22:35,6C91D3E0,0,0,19679,0,0,142
00:22:43,6C91D4E0,0,0,19679,0,0,142
00:22:59,6C91D6E0,0,0,19679,0,0,142
00:23:07,6C91D7E0,0,0,19679,0,0,142
00:23:15,6C91D8E0,0,0,19679,0,0,143
00:23:31,6C91DAE0,0,0,19679,0,0,143
00:23:39,6C91DBE0,0,0,19679,0,0,143
00:23:47,6C91DCE0,0,0,19679,0,0,144
00:24:03,6C91DEE0,0,0,19679,0,0,144
00:24:11,6C91DFE0,0,0,19679,0,0,144
00:24:19,6C91E0E0,0,0,19679,0,0,145
00:24:35,6C91E2E0,0,0,19679,0,0,145
00:24:43,6C91E3E0,0,0,19679,0,0,145
00:24:51,6C91E4E0,0,0,19679,0,0,145
00:25:07,6C91E6E0,0,0,19679,0,0,145
00:25:15,6C91E7E0,0,0,19679,0,0,145
00:25:23,6C91E8E0,0,0,19679,0,0,145
00:25:39,6C91EAE0,0,0,19679,0,0,146
00:25:47,6C91EBE0,0,0,19679,0,0,146
00:25:55,6C91ECE0,0,0,19679,0,0,146
00:26:11,6C91EEE0,0,0,19679,0,0,146
00:26:19,6C91EFE0,0,0,19679,0,0,146
00:26:27,6C91F0E0,0,0,19679,0,0,145
00:26:43,6C91F2E0,0,0,19679,0,0,144
00:26:51,6C91F3E0,0,0,19679,0,0,144
00:26:59,6C91F4E0,0,0,19679,0,0,144
00:27:15,6C91F6E0,0,0,19679,0,0,143
00:27:23,6C91F7E0,0,0,19679,0,0,143
00:27:31,6C91F8E0,0,0,19679,0,0,142
00:27:47,6C91FAE0,0,0,19679,0,0,141
00:27:55,6C91FBE0,0,0,19679,0,0,141
00:28:03,6C91FCE0,0,0,19679,0,0,141
00:28:19,6C91FEE0,0,0,19679,0,0,141
00:28:27,6C91FFE0,0,0,19679,0,0,141
00:28:35,6C9200E0,0,0,19679,0,0,141
00:28:51,6C9202E0,0,0,19679,0,0,141
00:28:59,6C9203E0,0,0,19679,0,0,142
00:29:07,6C9204E0,0,0,19679,0,0,142
00:29:23,6C9206E0,0,0,19679,0,0,142
00:29:31,6C9207E0,0,0,19679,0,0,142
00:29:39,6C9208E0,0,0,19679,0,0,143
00:29:55,6C920AE0,0,0,19679,0,0,143
00:30:03,6C920BE0,0,0,19679,0,0,143
00:30:11,6C920CE0,0,0,19679,0,0,144
00:30:27,6C920EE0,0,0,19679,0,0,144
00:30:35,6C920FE0,0,0,19679,0,0,144
00:30:43,6C9210E0,0,0,19679,0,0,144
00:30:59,6C9212E0,0,0,19679,0,0,144
00:31:07,6C9213E0,0,0,19679,0,0,144
00:31:15,6C9214E0,0,0,19679,0,0,145
00:31:31,6C9216E0,0,0,19679,0,0,145
00:31:39,6C9217E0,0,0,19679,0,0,145
00:31:47,6C9218E0,0,0,19679,0,0,145
00:32:03,6C921AE0,0,0,19679,0,0,146
00:32:11,6C921BE0,0,0,19679,0,0,146
00:32:19,6C921CE0,0,0,19679,0,0,146
00:32:35,6C921EE0,0,0,19679,0,0,146
00:32:43,6C921FE0,0,0,19679,0,0,146
00:32:51,6C9220E0,0,0,19679,0,0,146
00:33:07,6C9222E0,0,0,19679,0,0,145
00:33:15,6C9223E0,0,0,19679,0,0,145
00:33:23,6C9224E0,0,0,19679,0,0,145
00:33:39,6C9226E0,0,0,19679,0,0,144
00:33:47,6C9227E0,0,0,19679,0,0,144
00:33:55,6C9228E0,0,0,19679,0,0,143
00:34:11,6C922AE0,0,0,19679,0,0,143
00:34:19,6C922BE0,0,0,19679,0,0,142
00:34:27,6C922CE0,0,0,19679,0,0,142
00:34:43,6C922EE0,0,0,19679,0,0,141
00:34:51,6C922FE0,0,0,19679,0,0,141
00:34:59,6C9230E0,0,0,19679,0,0,141
00:35:15,6C9232E0,0,0,19679,0,0,140
00:35:23,6C9233E0,0,0,19679,0,0,141
00:35:31,6C9234E0,0,0,19679,0,0,141
00:35:47,6C9236E0,0,0,19679,0,0,141
00:35:55,6C9237E0,0,0,19679,0,0,142
00:36:03,6C9238E0,0,0,19679,0,0,142
00:36:19,6C923AE0,0,0,19679,0,0,142
00:36:27,6C923BE0,0,0,19679,0,0,143
00:36:35,6C923CE0,0,0,19679,0,0,143
00:36:51,6C923EE0,0,0,19679,0,0,143
00:36:59,6C923FE0,0,0,19679,0,0,143
00:37:07,6C9240E0,0,0,19679,0,0,143
00:37:23,6C9242E0,0,0,19679,0,0,144
00:37:31,6C9243E0,0,0,19679,0,0,144
00:37:39,6C9244E0,0,0,19679,0,0,144
00:37:55,6C9246E0,0,0,19679,0,0,144
00:38:03,6C9247E0,0,0,19679,0,0,145
00:38:11,6C9248E0,0,0,19679,0,0,145
00:38:27,6C924AE0,0,0,19679,0,0,145
00:38:35,6C924BE0,0,0,19679,0,0,145
00:38:43,6C924CE0,0,0,19679,0,0,145
00:38:59,6C924EE0,0,0,19679,0,0,146
00:39:07,6C924FE0,0,0,19679,0,0,146
00:39:15,6C9250E0,0,0,19679,0,0,146
00:39:31,6C9252E0,0,0,19679,0,0,146
00:39:39,6C9253E0,0,0,19679,0,0,146
00:39:47,6C9254E0,0,0,19679,0,0,146
00:40:03,6C9256E0,0,0,19679,0,0,145
00:40:11,6C9257E0,0,0,19679,0,0,145
00:40:19,6C9258E0,0,0,19679,0,0,144
00:40:35,6C925AE0,0,0,19679,0,0,144
00:40:43,6C925BE0,0,0,19679,0,0,143
00:40:51,6C925CE0,0,0,19679,0,0,143
00:41:07,6C925EE0,0,0,19679,0,0,143
00:41:15,6C925FE0,0,0,19679,0,0,142
00:41:23,6C9260E0,0,0,19679,0,0,142
00:41:39,6C9262E0,0,0,19679,0,0,141
00:41:47,6C9263E0,0,0,19679,0,0,141
00:41:55,6C9264E0,0,0,19679,0,0,141
00:42:11,6C9266E0,0,0,19679,0,0,141
00:42:19,6C9267E0,0,0,19679,0,0,141
00:42:27,6C9268E0,0,0,19679,0,0,141
00:42:43,6C926AE0,0,0,19679,0,0,142
00:42:51,6C926BE0,0,0,19679,0,0,142
00:42:59,6C926CE0,0,0,19679,0,0,142
00:43:15,6C926EE0,0,0,19679,0,0,142
00:43:23,6C926FE0,0,0,19679,0,0,143
00:43:31,6C9270E0,0,0,19679,0,0,143
00:43:47,6C9272E0,0,0,19679,0,0,143
00:43:55,6C9273E0,0,0,19679,0,0,143
00:44:03,6C9274E0,0,0,19679,0,0,144
00:44:19,6C9276E0,0,0,19679,0,0,144
00:44:27,6C9277E0,0,0,19679,0,0,144
00:44:35,6C9278E0,0,0,19679,0,0,144
00:44:51,6C927AE0,0,0,19679,0,0,145
00:44:59,6C927BE0,0,0,19679,0,0,145
00:45:07,6C927CE0,0,0,19679,0,0,145
00:45:23,6C927EE0,0,0,19679,0,0,145
00:45:31,6C927FE0,0,0,19679,0,0,145
00:45:39,6C9280E0,0,0,19679,0,0,145
00:45:55,6C9282E0,0,0,19679,0,0,145
00:46:03,6C9283E0,0,0,19679,0,0,145
00:46:11,6C9284E0,0,0,19679,0,0,146
00:46:27,6C9286E0,0,0,19679,0,0,146
00:46:35,6C9287E0,0,0,19679,0,0,146
00:46:43,6C9288E0,0,0,19679,0,0,146
00:46:59,6C928AE0,0,0,19679,0,0,145
00:47:07,6C928BE0,0,0,19679,0,0,145
00:47:15,6C928CE0,0,0,19679,0,0,145
00:47:31,6C928EE0,0,0,19679,0,0,144
00:47:39,6C928FE0,0,0,19679,0,0,144
00:47:47,6C9290E0,0,0,19679,0,0,143
00:48:03,6C9292E0,0,0,19679,0,0,142
00:48:11,6C9293E0,0,0,19679,0,0,142
00:48:19,6C9294E0,0,0,19679,0,0,142
00:48:35,6C9296E0,0,0,19679,0,0,141
00:48:43,6C9297E0,0,0,19679,0,0,141
00:48:51,6C9298E0,0,0,19679,0,0,141
00:49:07,6C929AE0,0,0,19679,0,0,141
00:49:15,6C929BE0,0,0,19679,0,0,141
00:49:23,6C929CE0,0,0,19679,0,0,141
00:49:39,6C929EE0,0,0,19679,0,0,142
00:49:47,6C929FE0,0,0,19679,0,0,142
00:49:55,6C92A0E0,0,0,19679,0,0,142
00:50:11,6C92A2E0,0,0,19679,0,0,143
00:50:19,6C92A3E0,0,0,19679,0,0,143
00:50:27,6C92A4E0,0,0,19679,0,0,143
00:50:43,6C92A6E0,0,0,19679,0,0,143
00:50:51,6C92A7E0,0,0,19679,0,0,143
00:50:59,6C92A8E0,0,0,19679,0,0,144
00:51:15,6C92AAE0,0,0,19679,0,0,144
00:51:23,6C92ABE0,0,0,19679,0,0,144
00:51:31,6C92ACE0,0,0,19679,0,0,144
00:51:47,6C92AEE0,0,0,19679,0,0,145
00:51:55,6C92AFE0,0,0,19679,0,0,145
00:52:03,6C92B0E0,0,0,19679,0,0,145
00:52:19,6C92B2E0,0,0,19679,0,0,145
00:52:27,6C92B3E0,0,0,19679,0,0,145
00:52:35,6C92B4E0,0,0,19679,0,0,145
00:52:51,6C92B6E0,0,0,19679,0,0,146
00:52:59,6C92B7E0,0,0,19679,0,0,146
00:53:07,6C92B8E0,0,0,19679,0,0,146
00:53:23,6C92BAE0,0,0,19679,0,0,146
00:53:31,6C92BBE0,0,0,19679,0,0,146
00:53:39,6C92BCE0,0,0,19679,0,0,146
00:53:55,6C92BEE0,0,0,19679,0,0,145
00:54:03,6C92BFE0,0,0,19679,0,0,145
00:54:11,6C92C0E0,0,0,19679,0,0,144
00:54:27,6C92C2E0,0,0,19679,0,0,143
00:54:35,6C92C3E0,0,0,19679,0,0,143
00:54:43,6C92C4E0,0,0,19679,0,0,143
00:54:59,6C92C6E0,0,0,19679,0,0,142
00:55:07,6C92C7E0,0,0,19679,0,0,142
00:55:15,6C92C8E0,0,0,19679,0,0,142
00:55:31,6C92CAE0,0,0,19679,0,0,141
00:55:39,6C92CBE0,0,0,19679,0,0,141
00:55:47,6C92CCE0,0,0,19679,0,0,141
00:56:03,6C92CEE0,0,0,19679,0,0,141
00:56:11,6C92CFE0,0,0,19679,0,0,141
00:56:19,6C92D0E0,0,0,19679,0,0,141
00:56:35,6C92D2E0,0,0,19679,0,0,142
00:56:43,6C92D3E0,0,0,19679,0,0,142
00:56:51,6C92D4E0,0,0,19679,0,0,142
00:57:07,6C92D6E0,0,0,19679,0,0,143
00:57:15,6C92D7E0,0,0,19679,0,0,143
00:57:23,6C92D8E0,0,0,19679,0,0,143
00:57:39,6C92DAE0,0,0,19679,0,0,143
00:57:47,6C92DBE0,0,0,19679,0,0,144
00:57:55,6C92DCE0,0,0,19679,0,0,144
00:58:11,6C92DEE0,0,0,19679,0,0,144
00:58:19,6C92DFE0,0,0,19679,0,0,144
00:58:27,6C92E0E0,0,0,19679,0,0,145
00:58:43,6C92E2E0,0,0,19679,0,0,145
00:58:51,6C92E3E0,0,0,19679,0,0,145
00:58:59,6C92E4E0,0,0,19679,0,0,145
00:59:15,6C92E6E0,0,0,19679,0,0,145
00:59:23,6C92E7E0,0,0,19679,0,0,145
00:59:31,6C92E8E0,0,0,19679,0,0,145
00:59:47,6C92EAE0,0,0,19679,0,0,146
00:59:55,6C92EBE0,0,0,19679,0,0,146
01:00:03,6C92ECE0,0,0,19679,0,0,146
01:00:19,6C92EEE0,0,0,19679,0,0,145
01:00:27,6C92EFE0,0,0,19679,0,0,145
01:00:35,6C92F0E0,0,0,19679,0,0,145
01:00:51,6C92F2E0,0,0,19679,0,0,144
01:00:59,6C92F3E0,0,0,19679,0,0,143
01:01:07,6C92F4E0,0,0,19679,0,0,143
01:01:23,6C92F6E0,0,0,19679,0,0,142
01:01:31,6C92F7E0,0,0,19679,0,0,142
01:01:39,6C92F8E0,0,0,19679,0,0,142
01:01:55,6C92FAE0,0,0,19679,0,0,141
01:02:03,6C92FBE0,0,0,19679,0,0,141
01:02:11,6C92FCE0,0,0,19679,0,0,141
01:02:27,6C92FEE0,0,0,19679,0,0,141
01:02:35,6C92FFE0,0,0,19679,0,0,141
01:02:43,6C9300E0,0,0,19679,0,0,141
01:02:59,6C9302E0,0,0,19679,0,0,141
01:03:07,6C9303E0,0,0,19679,0,0,142
01:03:15,6C9304E0,0,0,19679,0,0,142
01:03:31,6C9306E0,0,0,19679,0,0,143
01:03:39,6C9307E0,0,0,19679,0,0,143
01:03:47,6C9308E0,0,0,19679,0,0,143
01:04:03,6C930AE0,0,0,19679,0,0,143
01:04:11,6C930BE0,0,0,19679,0,0,143
01:04:19,6C930CE0,0,0,19679,0,0,144
01:04:35,6C930EE0,0,0,19679,0,0,144
01:04:43,6C930FE0,0,0,19679,0,0,144
01:04:51,6C9310E0,0,0,19679,0,0,144
01:05:07,6C9312E0,0,0,19679,0,0,145
01:05:15,6C9313E0,0,0,19679,0,0,145
01:05:23,6C9314E0,0,0,19679,0,0,145
01:05:39,6C9316E0,0,0,19679,0,0,145
01:05:47,6C9317E0,0,0,19679,0,0,145
01:05:55,6C9318E0,0,0,19679,0,0,145
01:06:03,6C9319E0,0,0,19679,0,0,145
01:06:11,6C931AE0,0,0,19679,0,0,145
01:06:19,6C931BE0,1,0,19679,0,0,146
01:06:27,6C931CE0,1,0,19679,0,0,146
01:06:35,6C931DE0,1,0,19679,0,0,146
01:06:43,6C931EE0,1,0,19679,0,0,146
01:06:51,6C931FE0,1,0,19679,0,0,145
01:06:59,6C9320E0,1,0,19679,0,0,145
01:07:07,6C9321E0,1,0,19679,0,0,145
01:07:15,6C9322E0,1,0,19679,0,0,144
01:07:23,6C9323E0,1,0,19679,0,0,144
01:07:31,6C9324E0,1,0,19679,0,0,144
01:07:39,6C9325E0,1,0,19679,0,0,143
01:07:47,6C9326E0,1,0,19679,0,0,143
01:07:55,6C9327E0,1,0,19679,0,0,143
01:08:03,6C9328E0,1,0,19679,0,0,142
01:08:11,6C9329E0,1,0,19679,0,0,142
01:08:19,6C932AE0,1,0,19679,0,0,142
01:08:27,6C932BE0,1,0,19679,0,0,141
01:08:35,6C932CE0,1,0,19679,0,0,141
01:08:43,6C932DE0,1,0,19679,0,0,141
01:08:51,6C932EE0,1,0,19679,0,0,141
01:08:59,6C932FE0,1,0,19679,0,0,140
01:09:07,6C9330E0,1,0,19679,0,0,141
01:09:15,6C9331E0,1,0,19679,0,0,141
01:09:23,6C9332E0,1,0,19679,0,0,141
01:09:31,6C9333E0,1,0,19679,0,0,141
01:09:39,6C9334E0,1,0,19679,0,0,142
01:09:47,6C9335E0,1,0,19679,0,0,142
01:09:55,6C9336E0,1,0,19679,0,0,142
01:10:03,6C9337E0,1,0,19679,0,0,142
01:10:11,6C9338E0,1,0,19679,0,0,143
01:10:19,6C9339E0,1,0,19679,0,0,143
01:10:27,6C933AE0,1,0,19679,0,0,143
01:10:35,6C933BE0,1,0,19679,0,0,143
01:10:43,6C933CE0,1,0,19679,0,0,143
01:10:51,6C933DE0,1,0,19679,0,0,144
01:10:59,6C933EE0,1,0,19679,0,0,144
01:11:07,6C933FE0,1,0,19679,0,0,144
01:11:15,6C9340E0,1,0,19679,0,0,144
01:11:23,6C9341E0,1,0,19679,0,0,144
01:11:31,6C9342E0,1,0,19679,0,0,145
01:11:39,6C9343E0,1,0,19679,0,0,145
01:11:47,6C9344E0,1,0,19679,0,0,145
01:11:55,6C9345E0,1,0,19679,0,0,145
01:12:03,6C9346E0,1,0,19679,0,0,145
01:12:11,6C9347E0,1,0,19679,0,0,145
01:12:19,6C9348E0,1,0,19679,0,0,145
01:12:27,6C9349E0,1,0,19679,0,0,145
01:12:35,6C934AE0,1,0,19679,0,0,146
01:12:43,6C934BE0,1,0,19679,0,0,146
01:12:51,6C934CE0,1,0,19679,0,0,146
01:12:59,6C934DE0,1,0,19679,0,0,146
01:13:07,6C934EE0,1,0,19679,0,0,146
01:13:15,6C934FE0,1,0,19679,0,0,146
01:13:23,6C9350E0,1,0,19679,0,0,146
01:13:31,6C9351E0,1,0,19679,0,0,145
01:13:39,6C9352E0,1,0,19679,0,0,145
01:13:47,6C9353E0,1,0,19679,0,0,145
01:13:55,6C9354E0,1,0,19679,0,0,144
01:14:03,6C9355E0,1,0,19679,0,0,144
01:14:11,6C9356E0,1,0,19679,0,0,144
01:14:19,6C9357E0,1,0,19679,0,0,143
01:14:27,6C9358E0,1,0,19679,0,0,143
01:14:35,6C9359E0,1,0,19679,0,0,142
01:14:43,6C935AE0,1,0,19679,0,0,142
01:14:51,6C935BE0,1,0,19679,0,0,142
01:14:59,6C935CE0,1,0,19679,0,0,142
01:15:07,6C935DE0,1,0,19679,0,0,142
01:15:15,6C935EE0,1,0,19679,0,0,141
01:15:23,6C935FE0,1,0,19679,0,0,141
01:15:31,6C9360E0,1,0,19679,0,0,141
01:15:39,6C9361E0,1,0,19679,0,0,141
01:15:47,6C9362E0,1,0,19679,0,0,141
01:15:55,6C9363E0,1,0,19679,0,0,141
01:16:03,6C9364E0,1,0,19679,0,0,141
01:16:11,6C9365E0,1,0,19679,0,0,142
01:16:19,6C9366E0,1,0,19679,0,0,142
01:16:27,6C9367E0,1,0,19679,0,0,142
01:16:35,6C9368E0,1,0,19679,0,0,142
01:16:43,6C9369E0,1,0,19679,0,0,142
01:16:51,6C936AE0,1,0,19679,0,0,143
01:16:59,6C936BE0,1,0,19679,0,0,143
01:17:07,6C936CE0,1,0,19679,0,0,143
01:17:15,6C936DE0,1,0,19679,0,0,143
01:17:23,6C936EE0,1,0,19679,0,0,144
01:17:31,6C936FE0,1,0,19679,0,0,144
01:17:39,6C9370E0,1,0,19679,0,0,144
01:17:47,6C9371E0,1,0,19679,0,0,144
01:17:55,6C9372E0,1,0,19679,0,0,145
01:18:03,6C9373E0,1,0,19679,0,0,145
01:18:11,6C9374E0,1,0,19679,0,0,145
01:18:19,6C9375E0,1,0,19679,0,0,145
01:18:27,6C9376E0,1,0,19679,0,0,145
01:18:35,6C9377E0,1,0,19679,0,0,145
01:18:43,6C9378E0,1,0,19679,0,0,145
01:18:51,6C9379E0,1,0,19679,0,0,145
01:18:59,6C937AE0,1,0,19679,0,0,145
01:19:07,6C937BE0,1,0,19679,0,0,146
01:19:15,6C937CE0,1,0,19679,0,0,146
01:19:23,6C937DE0,1,0,19679,0,0,146
01:19:31,6C937EE0,1,0,19679,0,0,146
01:19:39,6C937FE0,1,0,19679,0,0,145
01:19:47,6C9380E0,1,0,19679,0,0,145
01:19:55,6C9381E0,1,0,19679,0,0,145
01:20:03,6C9382E0,1,0,19679,0,0,144
01:20:11,6C9383E0,1,0,19679,0,0,144
01:20:19,6C9384E0,1,0,19679,0,0,144
01:20:27,6C9385E0,1,0,19679,0,0,143
01:20:35,6C9386E0,1,0,19679,0,0,143
01:20:43,6C9387E0,1,0,19679,0,0,143
01:20:51,6C9388E0,1,0,19679,0,0,142
01:20:59,6C9389E0,1,0,19679,0,0,142
01:21:07,6C938AE0,1,0,19679,0,0,142
01:21:15,6C938BE0,1,0,19679,0,0,142
01:21:23,6C938CE0,1,0,19679,0,0,141
01:21:31,6C938DE0,1,0,19679,0,0,141
01:21:39,6C938EE0,1,0,19679,0,0,141
01:21:47,6C938FE0,1,0,19679,0,0,141
01:21:55,6C9390E0,1,0,19679,0,0,141
01:22:03,6C9391E0,1,0,19679,0,0,141
01:22:11,6C9392E0,1,0,19679,0,0,141
01:22:19,6C9393E0,1,0,19679,0,0,142
01:22:27,6C9394E0,1,0,19679,0,0,142
01:22:35,6C9395E0,1,0,19679,0,0,142
01:22:43,6C9396E0,1,0,19679,0,0,142
01:22:51,6C9397E0,1,0,19679,0,0,143
01:22:59,6C9398E0,1,0,19679,0,0,143
01:23:07,6C9399E0,1,0,19679,0,0,143
01:23:15,6C939AE0,1,0,19679,0,0,143
01:23:23,6C939BE0,1,0,19679,0,0,143
01:23:31,6C939CE0,1,0,19679,0,0,144
01:23:39,6C939DE0,1,0,19679,0,0,144
01:23:47,6C939EE0,1,0,19679,0,0,144
01:23:55,6C939FE0,1,0,19679,0,0,144
01:24:03,6C93A0E0,1,0,19679,0,0,145
01:24:11,6C93A1E0,1,0,19679,0,0,145
01:24:19,6C93A2E0,1,0,19679,0,0,145
01:24:27,6C93A3E0,1,0,19679,0,0,145
01:24:35,6C93A4E0,1,0,19679,0,0,145
01:24:43,6C93A5E0,1,0,19679,0,0,145
01:24:51,6C93A6E0,1,0,19679,0,0,145
01:24:59,6C93A7E0,1,0,19679,0,0,145
01:25:07,6C93A8E0,1,0,19679,0,0,146
01:25:15,6C93A9E0,1,0,19679,0,0,146
01:25:23,6C93AAE0,1,0,19679,0,0,146
01:25:31,6C93ABE0,0,0,19679,0,0,146
01:25:39,6C93ACE0,0,0,19679,0,0,146
01:25:47,6C93ADE0,0,0,19679,0,0,146
01:25:55,6C93AEE0,0,0,19679,0,0,146
01:26:03,6C93AFE0,0,0,19679,0,0,146
01:26:11,6C93B0E0,0,0,19679,0,0,145
01:26:19,6C93B1E0,0,0,19679,0,0,145
01:26:27,6C93B2E0,0,0,19679,0,0,144
01:26:35,6C93B3E0,0,0,19595,3,0,144
01:26:43,6C93B4E0,0,0,19595,3,0,144
01:26:51,6C93B5E0,0,0,19595,3,0,143
01:26:59,6C93B6E0,0,0,19595,3,0,143
01:27:07,6C93B7E0,0,0,19595,2,0,143
01:27:15,6C93B8E0,0,0,19595,2,0,142
01:27:23,6C93B9E0,0,0,19595,2,0,142
01:27:31,6C93BAE0,0,0,19595,2,0,142
01:27:39,6C93BBE0,0,0,19595,3,0,141
01:27:47,6C93BCE0,0,0,19595,3,0,141
01:27:55,6C93BDE0,0,0,19595,3,0,141
01:28:03,6C93BEE0,0,0,19595,3,0,141
01:28:11,6C93BFE0,0,0,19594,2,0,141
01:28:19,6C93C0E0,0,0,19594,2,0,141
01:28:27,6C93C1E0,0,0,19594,2,0,141
01:28:35,6C93C2E0,0,0,19594,2,0,141
01:28:43,6C93C3E0,0,0,19596,3,0,142
01:28:51,6C93C4E0,0,0,19596,3,0,142
01:28:59,6C93C5E0,0,0,19596,3,0,142
01:29:07,6C93C6E0,0,0,19596,3,0,142
01:29:15,6C93C7E0,0,0,19605,0,0,143
01:29:23,6C93C8E0,0,0,19605,0,0,143
01:29:31,6C93C9E0,0,0,19605,0,0,143
01:29:39,6C93CAE0,0,0,19605,0,0,143
01:29:47,6C93CBE0,0,0,19593,1,0,143
01:29:55,6C93CCE0,0,0,19593,1,0,144
01:30:03,6C93CDE0,0,0,19593,1,0,144
01:30:11,6C93CEE0,0,0,19593,1,0,144
01:30:19,6C93CFE0,0,0,19589,1,0,144
01:30:27,6C93D0E0,0,0,19589,1,0,144
01:30:35,6C93D1E0,0,0,19589,1,0,144
01:30:43,6C93D2E0,0,0,19589,1,0,145
01:30:51,6C93D3E0,0,0,19588,2,0,145
01:30:59,6C93D4E0,0,0,19588,2,0,145
01:31:07,6C93D5E0,0,0,19588,2,0,145
01:31:15,6C93D6E0,0,0,19588,2,0,145
01:31:23,6C93D7E0,0,0,50,0,0,145
01:31:31,6C93D8E0,0,0,50,0,0,145
01:31:39,6C93D9E0,0,0,50,0,0,146
01:31:47,6C93DAE0,0,0,50,0,0,146
01:31:55,6C93DBE0,0,0,48,0,0,146
01:32:03,6C93DCE0,0,0,48,0,0,146
01:32:11,6C93DDE0,0,0,48,0,0,146
01:32:19,6C93DEE0,0,0,48,0,0,146
01:32:27,6C93DFE0,0,0,19592,0,0,146
01:32:35,6C93E0E0,0,0,19592,0,0,146
01:32:43,6C93E1E0,0,0,19592,0,0,145
01:32:51,6C93E2E0,0,0,19592,0,0,145
01:32:59,6C93E3E0,0,0,19590,3,0,145
01:33:07,6C93E4E0,0,0,19590,3,0,144
01:33:15,6C93E5E0,0,0,19590,3,0,144
01:33:23,6C93E6E0,0,0,19590,3,0,144
01:33:31,6C93E7E0,0,0,19591,2,0,143
01:33:39,6C93E8E0,0,0,19591,2,0,143
01:33:47,6C93E9E0,0,0,19591,2,0,143
01:33:55,6C93EAE0,0,0,19591,2,0,142
01:34:03,6C93EBE0,0,0,19592,2,0,142
01:34:11,6C93ECE0,0,0,19592,2,0,142
01:34:19,6C93EDE0,0,0,19592,2,0,141
01:34:27,6C93EEE0,0,0,19592,2,0,141
01:34:35,6C93EFE0,0,0,19591,3,0,141
01:34:43,6C93F0E0,0,0,19591,3,0,141
01:34:51,6C93F1E0,0,0,19591,3,0,141
01:34:59,6C93F2E0,0,0,19591,3,0,141
01:35:07,6C93F3E0,0,0,19590,3,0,141
01:35:15,6C93F4E0,0,0,19590,3,0,142
01:35:23,6C93F5E0,0,0,19590,3,0,142
01:35:31,6C93F6E0,0,0,19590,3,0,142
01:35:39,6C93F7E0,0,0,19595,4,0,142
01:35:47,6C93F8E0,0,0,19595,4,0,143
01:35:55,6C93F9E0,0,0,19595,4,0,143
01:36:03,6C93FAE0,0,0,19595,4,0,143
01:36:11,6C93FBE0,0,0,19592,4,0,143
01:36:19,6C93FCE0,0,0,19592,4,0,143
01:36:27,6C93FDE0,0,0,19592,4,0,143
01:36:35,6C93FEE0,0,0,19592,4,0,144
01:36:43,6C93FFE0,0,0,19593,4,0,144
01:36:51,6C9400E0,0,0,19593,4,0,144
01:36:59,6C9401E0,0,0,19593,4,0,144
01:37:07,6C9402E0,0,0,19593,4,0,145
01:37:15,6C9403E0,0,0,19597,3,0,145
01:37:23,6C9404E0,0,0,19597,3,0,145
01:37:31,6C9405E0,0,0,19597,3,0,145
01:37:39,6C9406E0,0,0,19597,3,0,145
01:37:47,6C9407E0,0,0,19594,7,0,145
01:37:55,6C9408E0,0,0,19594,7,0,145
01:38:03,6C9409E0,0,0,19594,7,0,145
01:38:11,6C940AE0,0,0,19594,7,0,146
01:38:19,6C940BE0,0,0,19595,5,0,146
01:38:27,6C940CE0,0,0,19595,5,0,146
01:38:35,6C940DE0,0,0,19595,5,0,146
01:38:43,6C940EE0,0,0,19595,5,0,146
01:38:51,6C940FE0,0,0,19594,5,0,146
01:38:59,6C9410E0,0,0,19594,5,0,145
01:39:07,6C9411E0,0,0,19594,5,0,145
01:39:15,6C9412E0,0,0,19594,5,0,145
01:39:23,6C9413E0,0,0,19595,4,0,145
01:39:31,6C9414E0,0,0,19595,4,0,144
01:39:39,6C9415E0,0,0,19595,4,0,144
01:39:47,6C9416E0,0,0,19595,4,0,144
01:39:55,6C9417E0,0,0,19598,3,0,143
01:40:03,6C9418E0,0,0,19598,3,0,143
01:40:11,6C9419E0,0,0,19598,3,0,143
01:40:19,6C941AE0,0,0,19598,3,0,142
01:40:27,6C941BE0,0,0,19598,3,0,142
01:40:35,6C941CE0,0,0,19598,3,0,142
01:40:43,6C941DE0,0,0,19598,3,0,141
01:40:51,6C941EE0,0,0,19598,3,0,141
01:40:59,6C941FE0,0,0,19599,1,0,141
01:41:07,6C9420E0,0,0,19599,1,0,141
01:41:15,6C9421E0,0,0,19599,1,0,141
01:41:23,6C9422E0,0,0,19599,1,0,141
01:41:31,6C9423E0,0,0,19595,3,0,142
01:41:39,6C9424E0,0,0,19595,3,0,142
01:41:47,6C9425E0,0,0,19595,3,0,142
01:41:55,6C9426E0,0,0,19595,3,0,142
01:42:03,6C9427E0,0,0,19600,3,0,142
01:42:11,6C9428E0,0,0,19600,3,0,143
01:42:19,6C9429E0,0,0,19600,3,0,143
01:42:27,6C942AE0,0,0,19600,3,0,143
01:42:35,6C942BE0,0,0,19600,1,0,143
01:42:43,6C942CE0,0,0,19600,1,0,143
01:42:51,6C942DE0,0,0,19600,1,0,143